x

8454000 - Providence, Ri (foxr1) Weather Station

4:54 - Mon 23rd Jan 2017 All times are EST. -5 hours from GMT.

  • Wind
    9mph, 20mph gusts
  • Sea Temp 40°f
  • Luft Temp 38°f
  • Sea Pressure 1013.9mb
  • 8454000 - Providence, Ri
  • 8454000 - Providence, Ri

More Historic Weather Station data

Upgrade to MSW Pro to gain access to the past 30 days of data for over 8000 Wavebouys and Weather Stations around the globe.

Join Pro

Comparision Forecast

View Surf forecast
   
Mo 01/23 4:54 9 20 mph 1013.9mb 40f 38f
4:48 15 22 mph 1013.4mb 40f 38f
4:42 11 22 mph 1013mb 40f 38f
4:36 14 22 mph 1012.7mb 40f 38f
4:30 13 18 mph 1012.6mb 40f 39f
4:24 14 20 mph 1012.6mb 40f 39f
4:18 13 16 mph 1012.3mb 40f 39f
4:12 13 18 mph 1012.3mb 40f 39f
4:06 13 18 mph 1012.2mb 41f 39f
4:00 11 20 mph 1012.8mb 41f 39f
3:54 13 17 mph 1012.8mb 41f 39f
3:48 14 20 mph 1013mb 41f 39f
3:42 14 20 mph 1013mb 41f 39f
3:36 9 20 mph 1013.3mb 41f 39f
3:30 15 20 mph 1013.5mb 41f 39f
3:24 11 15 mph 1013.5mb 41f 39f
3:18 9 14 mph 1013.6mb 41f 40f
3:12 7 14 mph 1013.6mb 41f 40f
3:06 11 17 mph 1013.5mb 41f 40f
3:00 13 16 mph 1013.5mb 41f 40f
2:54 11 15 mph 1013.5mb 41f 40f
2:48 11 16 mph 1013.5mb 41f 40f
2:42 9 15 mph 1013.5mb 41f 40f
2:36 14 18 mph 1013.3mb 41f 40f
2:30 14 20 mph 1013.2mb 41f 40f
2:24 10 15 mph 1013.2mb 41f 40f
2:18 10 17 mph 1013.1mb 41f 40f
2:12 9 18 mph 1013.1mb 41f 40f
2:06 9 14 mph 1013.1mb 41f 40f
2:00 8 13 mph 1013.2mb 41f 40f
1:54 7 14 mph 1013.2mb 41f 40f
1:48 10 15 mph 1013.2mb 41f 40f
1:42 8 13 mph 1013.1mb 41f 40f
1:36 7 14 mph 1013mb 41f 40f
1:30 9 15 mph 1013mb 41f 40f
1:24 9 13 mph 1013mb 41f 40f
1:18 10 11 mph 1013mb 41f 40f
1:12 9 14 mph 1012.8mb 41f 40f
1:06 8 14 mph 1012.7mb 41f 40f
1:00 10 14 mph 1012.9mb 41f 40f
12:54 8 13 mph 1012.9mb 41f 40f
12:48 9 13 mph 1012.7mb 41f 40f
12:42 10 13 mph 1012.6mb - -
12:36 10 15 mph 1012.5mb - -
12:30 11 15 mph 1012.5mb 41f 40f
12:24 11 18 mph 1012.6mb 41f 40f
12:18 13 18 mph 1012.6mb - -
12:12 10 17 mph 1012.4mb 41f 40f
12:06 8 15 mph 1012.4mb 41f 40f
12:00 10 15 mph 1012.6mb 41f 40f
So 01/22 11:54 10 16 mph 1012.6mb 41f 40f
11:48 9 17 mph 1012.6mb 40f 40f
11:42 9 14 mph 1012.5mb 40f 41f
11:36 9 14 mph 1012.5mb 40f 41f
11:30 8 13 mph 1012.3mb 40f 41f
11:24 10 16 mph 1012.3mb 40f 41f
11:18 11 17 mph 1012.4mb 40f 41f
11:12 13 16 mph 1012.4mb 40f 41f
11:06 11 17 mph 1012.4mb 40f 41f
11:00 9 15 mph 1012.5mb 40f 41f
10:54 13 18 mph 1012.4mb 40f 41f
10:48 11 18 mph 1012.4mb 40f -
10:42 11 16 mph 1012.7mb 40f 41f
10:36 10 14 mph 1012.7mb 40f 41f
10:30 9 14 mph 1012.6mb 40f 41f
10:24 10 13 mph 1012.4mb 40f 41f
10:18 9 16 mph 1012.4mb 40f 41f
10:12 9 14 mph 1012.3mb 40f 41f
10:06 8 14 mph 1012.2mb 40f 41f
10:00 9 13 mph 1012.2mb 40f 41f
9:54 9 14 mph 1012.4mb 40f 41f
9:48 8 16 mph 1012.1mb - -
9:42 11 17 mph 1012.1mb 40f 41f
9:36 9 20 mph 1012.2mb 40f 41f
9:30 9 14 mph 1012.3mb 40f 41f
9:24 9 15 mph 1012.3mb 40f 41f
9:18 11 17 mph 1012.1mb 40f 41f
9:12 9 16 mph 1012.1mb 40f 41f
9:06 14 20 mph 1012mb 40f 41f
9:00 13 17 mph - 40f 41f
8:54 11 18 mph - 40f 41f
8:48 11 20 mph 1012.1mb - -
8:42 13 16 mph 1012.2mb 40f 41f
8:36 9 17 mph 1012.2mb 40f 42f
8:30 13 20 mph 1012.3mb 40f -
8:24 8 16 mph 1012mb 40f -
8:18 9 20 mph - - -
8:12 13 17 mph 1011.8mb 40f 42f
8:06 10 18 mph 1011.8mb 40f 42f
8:00 11 15 mph 1011.5mb 40f 42f
7:54 14 20 mph 1011.2mb 40f 42f
7:48 13 17 mph 1011mb 40f 42f
7:42 11 18 mph 1011.1mb 40f 42f
7:36 15 22 mph 1011mb 40f 42f
7:30 11 20 mph 1010.9mb 40f 42f
7:24 15 20 mph 1010.8mb 40f 42f
7:18 11 16 mph - - -
7:12 8 18 mph 1010.4mb 40f 43f
7:06 11 21 mph 1010.1mb 40f 43f
7:00 10 15 mph 1010.2mb 40f 43f
6:54 11 14 mph 1010.3mb 40f 43f
6:48 13 18 mph 1010.4mb - -
6:42 10 15 mph 1010.5mb 40f -
6:36 10 15 mph 1010.5mb 40f -
6:30 7 13 mph 1010.6mb 40f 43f
6:24 11 14 mph 1010.7mb 40f 43f
6:18 10 15 mph 1010.7mb 40f 44f
6:12 10 16 mph 1010.6mb 40f 44f
6:06 11 17 mph 1010.6mb 40f 44f
6:00 9 14 mph 1010.6mb 40f 44f
5:54 8 14 mph 1010.5mb 40f 44f
5:48 11 16 mph - 40f -
5:42 11 18 mph - 40f 44f
5:36 14 17 mph - 40f 44f
5:30 11 15 mph 1009.6mb 40f 44f
5:24 10 16 mph 1009.6mb 40f 44f
5:18 10 13 mph 1009.2mb 40f 45f
5:12 11 18 mph 1009mb 40f 45f
5:06 13 18 mph 1008.9mb 40f 45f
5:00 15 20 mph 1008.9mb 40f 45f
4:54 15 18 mph 1008.8mb 40f 46f
4:48 13 16 mph 1008.8mb 40f 46f
4:42 11 17 mph 1008.6mb 40f 46f
4:36 13 16 mph 1008.6mb 40f 46f
4:30 10 14 mph 1008.6mb 40f 46f
4:12 8 11 mph 1008.8mb 40f 46f
4:06 9 11 mph 1008.9mb 40f 46f
4:00 6 11 mph 1008.9mb 40f 46f
3:54 7 10 mph 1008.8mb 40f 46f
3:48 7 13 mph 1008.8mb 41f 46f
3:42 6 10 mph 1008.7mb 41f 46f
3:36 7 13 mph 1008.7mb 41f 46f
3:30 7 11 mph 1008.4mb 41f 46f
3:24 7 14 mph 1008.4mb 41f 47f
3:18 7 13 mph 1008.3mb 41f 47f
3:12 9 13 mph 1008.2mb 41f 47f
3:06 7 14 mph 1008.2mb 41f 47f
3:00 6 14 mph 1007.9mb 41f 47f
2:54 8 14 mph 1007.9mb 41f 47f
2:48 8 16 mph 1007.9mb 41f 47f
2:42 8 14 mph 1008mb 41f 47f
2:36 10 18 mph 1008mb 41f 47f
2:30 8 14 mph 1008.1mb 41f 47f
2:24 7 10 mph 1008mb 41f 48f
2:18 8 13 mph 1007.8mb 41f 48f
2:12 8 13 mph 1007.6mb 41f 48f
2:06 7 10 mph 1007.5mb 41f 48f
2:00 8 13 mph 1007.4mb 41f 48f
1:54 9 14 mph 1007.4mb 41f 48f
1:48 9 14 mph 1007.4mb 41f 48f
1:42 7 11 mph 1007.4mb 41f 48f
1:36 7 13 mph 1007.3mb 41f 49f
1:30 7 14 mph 1007.1mb 41f 49f
1:24 7 14 mph 1007.1mb 41f 49f
1:18 9 11 mph 1007.1mb 41f 49f
1:12 6 11 mph 1007.1mb 41f 50f
1:06 6 9 mph 1007.2mb 41f 50f
1:00 7 13 mph 1007.2mb 41f -
12:54 7 11 mph 1007.3mb 41f 49f
12:48 6 11 mph 1007.3mb 40f 49f
12:42 7 10 mph 1007.5mb 40f 49f
12:36 3 8 mph 1007.5mb 40f 49f
12:30 5 7 mph 1007.6mb 40f 49f
12:24 6 7 mph 1007.6mb 40f 49f
12:18 3 9 mph 1007.5mb 40f 48f
12:12 6 9 mph 1007.5mb 40f 48f
12:06 5 7 mph 1007.6mb 40f 48f
12:00 5 8 mph 1007.6mb 40f 48f
11:54 5 9 mph 1007.6mb 40f 47f
11:48 5 7 mph 1007.6mb 40f 47f
11:42 5 7 mph 1007.7mb 40f 47f
11:36 5 7 mph 1007.7mb 40f 47f
11:30 5 7 mph 1007.7mb 40f 46f
11:24 5 6 mph 1007.9mb 40f 46f
11:18  -  1 mph 1008mb 40f 46f
11:12  -  2 mph 1008.1mb 40f 46f
11:06 2 3 mph 1008.1mb 40f 46f
11:00  -  1 mph 1008.1mb 40f 46f
10:54  -  1 mph 1008.2mb 40f 46f
10:48 1 2 mph 1008.2mb 40f 45f
10:42 2 5 mph 1008mb 40f 45f
10:36 1 3 mph 1008mb 40f 45f
10:30 2 3 mph 1007.9mb 40f 44f
10:24 3
mph
1008mb 40f 44f
10:18 3 5 mph 1008mb 40f 44f
10:12 2 5 mph 1008mb 40f 43f
10:06 2 5 mph 1008mb 40f 43f
10:00 3 6 mph 1007.9mb 40f 43f
9:54 2 5 mph 1008mb 40f 42f
9:48 2 5 mph 1008.1mb 40f 42f
9:42 1 5 mph 1008mb 40f 42f
9:36 2 3 mph 1007.9mb 40f 42f
9:30 2 5 mph 1007.9mb 40f 41f
9:24 3 8 mph 1007.5mb 40f 41f
9:18 6 9 mph 1007.5mb 40f 41f
9:12 7 9 mph 1007.5mb 40f 40f
9:06 6 8 mph 1007.5mb 40f 40f
9:00 6 7 mph 1007.5mb 40f 40f
8:54 3 6 mph 1007.7mb 40f 40f
8:48 3 5 mph - 40f 40f
8:42 2 5 mph - 40f 40f
8:36 3 6 mph - 40f 39f
8:30 3 5 mph 1008.1mb 40f 39f
8:24 2 5 mph 1008.2mb 40f 39f
8:18 2
mph
1008.2mb 40f 39f
8:12  -  1 mph 1008mb 40f 39f
8:06 1 2 mph 1008mb 40f 39f
8:00  -  1 mph 1007.9mb 40f 38f
7:54  -  2 mph 1007.9mb 40f 38f
7:48  -  1 mph 1007.8mb 40f 38f
7:42  -  1 mph 1007.7mb 40f 38f
7:36  -  2 mph 1007.6mb 40f 38f
7:30 2 3 mph 1007.6mb 40f 38f
7:24 2 3 mph 1007.6mb 40f 38f
7:18 2 5 mph 1007.4mb 40f 38f
7:12 2 3 mph 1007.4mb 40f 38f
7:06 2 5 mph 1007.5mb 40f 38f
7:00 1 3 mph 1007.5mb 40f 38f
6:54  -  5 mph 1007.5mb 40f 38f
6:48 2 3 mph 1007.5mb 40f 38f
6:42 1 3 mph 1007.7mb 40f 38f
6:36 2 3 mph 1007.6mb 40f 38f
6:30 1 2 mph 1007.5mb 40f 38f
6:24  -  1 mph 1007.4mb 41f 38f
6:18  -  2 mph 1007.3mb 41f 39f
6:12 2 3 mph 1007.3mb 41f 38f
6:06 1 2 mph 1007.3mb 41f 38f
6:00 1 2 mph 1007.2mb 41f 38f
5:54  -  1 mph 1007.2mb 41f 38f
5:48  -  1 mph 1007.1mb 41f 38f
5:42  -  1 mph 1007.1mb 41f 38f
5:36  -  3 mph 1007mb 41f 38f
5:30 2 3 mph 1007mb 41f 38f
5:24 2 3 mph 1006.7mb 40f 38f
5:18  -  3 mph 1006.6mb 40f 38f
5:12 2 3 mph 1006.5mb 40f 38f
5:06 2
mph
1006.4mb 40f 38f
5:00 1 2 mph 1006.5mb 40f 38f
4:54 3
mph
1006.5mb 40f 38f
4:48  -  mph 1006.3mb 40f 38f
4:42  -  3 mph 1006.3mb 40f 39f
4:36 2 3 mph 1006.5mb 40f 39f
4:30 1 7 mph 1006.5mb 40f 39f
4:24 6
mph
1006.5mb 40f 39f
4:18 2 5 mph 1006.4mb 40f 39f
4:12  -  3 mph 1006.3mb 40f 39f
4:06  -  1 mph 1006.4mb 40f 39f
4:00 2
mph
1006.2mb 40f 39f
3:54 1 2 mph 1006.3mb 40f 39f
3:48 1 3 mph 1006.3mb 41f 38f
3:42 2 5 mph 1006.5mb 41f 38f
3:36 2 3 mph 1006.7mb 41f 38f
3:30 3 5 mph 1006.6mb 41f 38f
3:24 2 3 mph 1006.4mb 41f 38f
3:18 2 5 mph 1006.5mb 41f 38f
3:12 5
mph
1006.4mb 41f 38f
3:06  -  1 mph 1006.4mb 41f 38f
3:00  -  1 mph 1006.5mb 41f 38f
2:54  -  1 mph 1006.7mb 41f 38f
2:48  -  2 mph 1006.7mb 41f 38f
2:42  -  1 mph 1006.7mb 41f 38f
2:36 1 2 mph 1006.7mb 41f 38f
2:30  -  1 mph 1006.7mb 41f 39f
2:24 1
mph
1006.9mb 41f 38f
2:18  -  mph 1007mb - -
2:12  -  1 mph 1007.1mb 41f 38f
2:06  -  1 mph 1007.1mb 41f 38f
2:00  -  mph 1007.1mb 41f 38f
1:54  -  1 mph 1007.1mb 41f 38f
1:48  -  1 mph 1007.2mb 41f 38f
1:42 1 2 mph 1007.1mb 41f -
1:36  -  1 mph 1007.2mb 41f -
1:30  -  1 mph 1007.1mb 41f 38f
1:24  -  2 mph 1007mb 41f 38f
1:18 1 2 mph 1006.9mb 41f 39f
1:12 1 5 mph 1006.8mb 41f 38f
1:06 3 5 mph 1006.8mb 41f 38f
1:00 1 3 mph 1006.7mb 41f 39f
12:54 1 2 mph 1006.7mb 41f 39f
12:48  -  1 mph 1006.7mb 41f -
12:42  -  mph 1006.7mb 41f 39f
12:36  -  1 mph 1006.9mb 41f 39f
12:30  -  2 mph 1006.8mb 41f 39f
12:24  -  2 mph 1006.8mb 41f 40f
12:18 2 5 mph 1006.7mb 41f 40f
12:12 3
mph
1006.7mb 41f 40f
12:06 3 5 mph 1006.7mb 41f 40f
12:00 5 6 mph 1006.7mb 41f 40f
Sa 01/21 11:54 5 6 mph 1006.7mb 41f 40f
11:48 3
mph
1006.8mb 40f 40f
11:42 2 3 mph 1006.8mb 40f 40f
11:36 1 2 mph 1006.7mb 40f 40f
11:30 2
mph
1006.7mb 40f 40f
11:24  -  1 mph 1006.8mb 40f 40f
11:18  -  2 mph 1006.8mb 40f 40f
11:12 2 3 mph 1007mb 40f 40f
11:06 2
mph
1007.1mb 40f 40f
11:00 2
mph
1007.1mb 40f 40f
10:54 2 3 mph 1007.1mb 40f 40f
10:48 3
mph
1006.9mb 40f 40f
10:42 3
mph
1007mb 40f 40f
10:36 2 3 mph 1006.9mb 40f 40f
10:30 3
mph
1007mb 40f 40f
10:24 3 6 mph 1007mb 40f 40f
10:18 6 7 mph 1007mb 40f 40f
10:12 5
mph
1007mb 40f 40f
10:06 3 5 mph 1007mb 40f 41f
10:00 2
mph
1007mb 40f 41f
9:54 2 5 mph 1007mb 40f 41f
9:48 5 6 mph 1007.1mb 40f -
9:42 3 5 mph 1007.1mb 40f 41f
9:36 5 6 mph 1007.2mb 40f 41f
9:30 5 8 mph 1007.2mb 40f 41f
9:24 6 8 mph 1007.2mb 40f 41f
9:18 6 7 mph 1007.4mb 40f 41f
9:12 5 6 mph 1007.4mb 40f 41f
9:06 6
mph
1007.5mb 40f 41f
9:00 5 6 mph 1007.6mb - -
8:54 3 6 mph 1007.5mb 40f 42f
8:48 5 6 mph 1007.5mb - -
8:42 3
mph
1007.5mb 40f 42f
8:36 2 5 mph 1007.5mb 40f 42f
8:30 5 6 mph 1007.5mb 40f -
8:24 6 7 mph 1007.6mb 40f 42f
8:18 5 6 mph 1007.6mb 40f 42f
8:12 5
mph
1007.6mb 40f 42f
8:06 2 6 mph 1007.5mb 40f 42f
8:00 6 7 mph 1007.5mb 40f 42f
7:54 5 7 mph 1007.5mb 40f 42f
7:48 7 8 mph 1007.5mb 40f 42f
7:42 7 8 mph 1007.5mb 40f 42f
7:36 7 8 mph 1007.4mb 40f 43f
7:30 7 8 mph 1007.3mb 40f 43f
7:24 6 7 mph 1007.4mb 40f 44f
7:18 6 7 mph 1007.4mb - -
7:12 6 8 mph 1007.5mb 40f 44f
7:06 6 7 mph 1007.5mb 40f 44f
7:00 6 7 mph 1007.5mb 40f 45f
6:54 7 8 mph 1007.4mb 40f 45f
6:48 7 8 mph 1007.4mb 40f -
6:42 5 6 mph 1007.3mb 40f -
6:36 2 6 mph 1007.3mb 40f -
6:30 5 7 mph 1007.3mb 40f 50f
6:24 5 7 mph 1007.3mb 40f 50f
6:18 6 7 mph 1007.2mb 40f 50f
6:12 5 6 mph 1007.2mb 40f 50f
6:06 6 9 mph 1007.1mb 40f 51f
6:00 6 8 mph 1007.1mb 40f 51f
5:54 6 8 mph 1007.1mb 40f 51f
5:48 7 9 mph 1007.1mb - -
5:42 7 11 mph 1007mb 40f -
5:36 6 10 mph 1006.9mb 40f -
5:30 7 10 mph 1006.9mb 40f 52f
5:24 6 7 mph 1007.1mb 40f 52f
5:18 6 8 mph 1007mb 40f 53f
5:12 5 7 mph 1007.1mb 40f 53f
5:06 6 8 mph 1007.1mb 40f 53f
5:00 6 9 mph 1007.1mb 40f 53f
4:54 5 8 mph 1007mb 40f 54f
4:48 5 8 mph 1006.9mb 40f 54f
4:42 6 9 mph 1006.8mb 40f 54f
4:36 6 8 mph 1006.8mb 40f 54f
4:30 7 10 mph 1006.8mb 40f 55f
4:24 9 13 mph 1006.8mb 40f 55f
4:18 8 13 mph 1006.8mb 40f 55f
4:12 7 13 mph 1006.7mb 40f 56f
4:06 6 11 mph 1006.5mb 40f 56f
4:00 8 11 mph 1006.5mb 40f 56f
3:54 7 10 mph 1006.3mb 40f 56f
3:48 5 9 mph 1006.3mb 40f 56f
3:42 8 10 mph 1006.2mb 40f 56f
3:36 7 9 mph 1006.3mb 40f 56f
3:30 7 13 mph 1006.2mb 40f 56f
3:24 8 11 mph 1006.2mb 40f 56f
3:18 9 15 mph 1006.3mb 40f 56f
3:12 6 10 mph 1006.4mb 40f 56f
3:06 5 8 mph 1006.4mb 41f 56f
3:00 6 7 mph 1006.4mb 41f 56f
2:54 5 7 mph 1006.4mb 41f 56f
2:48 7 10 mph 1006.4mb 41f 56f
2:42 5 9 mph 1006.4mb 41f 56f
2:36 3 6 mph 1006.4mb 41f 56f
2:30 3 8 mph 1006.4mb 41f 56f
2:24 5 7 mph 1006.6mb 41f 55f
2:18 6 8 mph 1006.5mb 41f 55f
2:12 5 7 mph 1006.5mb 41f 55f
2:06 5 9 mph 1006.6mb 41f 54f
2:00 8 10 mph 1006.8mb 41f 54f
1:54 8 11 mph 1006.8mb 41f 54f
1:48 9 11 mph - 41f 54f
1:42 5 9 mph - 41f 54f
1:36 7 10 mph - 41f 53f
1:30 3 8 mph 1006.8mb 41f 53f
1:24 6 10 mph 1007.3mb 41f 52f
1:18 5 7 mph 1007.3mb 41f 52f
1:12 6 11 mph 1007.3mb 41f 51f
1:06 5 11 mph 1007.5mb 41f 51f
1:00 8 9 mph 1007.6mb 41f 50f
12:54 8 9 mph 1007.7mb 40f 50f
12:48 8 10 mph 1007.5mb 40f 49f
12:42 8 10 mph 1007.6mb 40f 49f
12:36 7 8 mph 1007.6mb 40f 48f
12:30 6 8 mph 1007.6mb 40f 48f
12:24 6 8 mph 1007.6mb 40f 48f
12:18 6 8 mph 1007.9mb 40f 48f
12:12 5 6 mph 1008mb 40f 48f
12:06 5 6 mph 1008mb 40f 48f
12:00 5 6 mph 1008mb 40f 47f
11:54 5 8 mph 1008.2mb 40f 47f
11:48 5 7 mph 1008.5mb 40f -
11:42 3 6 mph 1008.7mb 40f 47f
11:36 5 7 mph 1008.8mb 40f 47f
11:30 5 7 mph 1009.1mb 40f 47f
11:24 5 7 mph 1009.3mb 40f 47f
11:18 6 7 mph 1009.3mb 40f 47f
11:12 3 8 mph 1009.4mb 40f 46f
11:06 6 7 mph 1009.4mb 40f 46f
11:00 3 8 mph 1009.4mb 40f 46f
10:54 7 10 mph 1009.4mb 40f 46f
10:48 8 10 mph 1009.6mb 40f 46f
10:42 7 9 mph 1009.6mb 40f 46f
10:36 6 8 mph 1009.8mb 40f 46f
10:30 6 8 mph 1009.8mb 40f 46f
10:24 5 8 mph 1009.9mb 40f 45f
10:18 5 8 mph 1010.1mb 40f 45f
10:12 7 8 mph 1010.2mb 40f 45f
10:06 6 9 mph 1010.2mb 40f 45f
10:00 3 6 mph 1010.2mb 40f 45f
9:54 3 6 mph 1010mb 40f 44f
9:48 6 8 mph 1010mb 40f 44f
9:42 6 7 mph 1010mb 40f 44f
9:36 6 8 mph 1009.9mb 40f 44f
9:30 6 10 mph 1010mb 40f 44f
9:24 5 9 mph 1010mb 40f 44f
9:18 8 9 mph 1009.9mb 40f -
9:12 5 7 mph 1009.9mb 40f 44f
9:06 6 10 mph 1010.2mb 40f 43f
9:00 9 13 mph 1010.2mb 40f 43f
8:54 9 13 mph 1009.9mb 40f 43f
8:48 5 8 mph 1009.9mb 40f 44f
8:42 5 6 mph 1009.9mb 40f 44f
8:36 3 5 mph 1009.8mb 40f 44f
8:30 3 5 mph 1009.9mb 40f 43f
8:24 2 6 mph 1010.1mb 40f 43f
8:18 2 7 mph 1010.3mb 40f 43f
8:12 7 9 mph 1010.5mb 40f 42f
8:06 7 10 mph 1010.5mb 40f 42f
8:00 7 9 mph 1010.6mb 40f 42f
7:54 6 9 mph 1010.6mb 40f 42f
7:48 3 5 mph 1010.5mb 40f 42f
7:42 2 5 mph 1010.5mb 40f 42f
7:36 1 3 mph 1010.5mb 40f 41f
7:30 2 3 mph 1010.5mb 40f 41f
7:24 2 5 mph 1010.4mb 40f 41f
7:18 3 5 mph 1010.4mb 40f -
7:12 2 5 mph 1010.3mb 40f 41f
7:06 3
mph
1010.4mb 40f 41f
7:00 2 3 mph 1010.4mb 40f 41f
6:54 3 5 mph 1010.4mb 40f 41f
6:48 3
mph
1010.4mb 40f 41f
6:42 3
mph
1010.4mb 40f 41f
6:36 3
mph
1010.5mb 40f 41f
6:30 2 3 mph 1010.5mb 40f 41f
6:24 2 5 mph 1010.5mb 40f 41f
6:18 3 5 mph 1010.6mb 40f 41f
6:12 2 3 mph 1010.5mb 40f 40f
6:06 2 5 mph 1010.4mb 40f 40f
6:00 3 5 mph 1010.3mb 40f 40f
5:54 5 6 mph 1010.3mb 40f 40f
5:48 5 6 mph 1010.2mb 40f 40f
5:42 3 5 mph 1010.2mb 40f 40f
5:36 3 5 mph 1010.3mb 40f 40f
5:30 1 2 mph 1010.3mb 40f 40f
5:24 2 3 mph 1010.3mb 40f 41f
5:18 3 5 mph 1010.3mb 40f 40f
5:12 2 3 mph 1010.4mb 40f 40f
5:06 2 3 mph 1010.4mb 40f 40f
5:00 3 5 mph 1010.4mb 40f 40f
4:54 3 6 mph 1010.6mb 40f 40f
4:48 2 3 mph 1010.7mb 40f 40f
4:42 5 6 mph 1010.7mb 40f 40f
4:36 2 5 mph 1010.8mb 40f 40f
4:30 3 5 mph 1010.8mb 40f 40f
4:24 2 3 mph 1010.8mb 40f 40f
4:18 3 5 mph 1010.8mb 40f 40f
4:12 3 5 mph 1010.8mb 40f 40f
4:06 5 6 mph 1010.8mb 40f 40f
4:00 3 5 mph 1010.8mb 40f 40f
3:54 3 5 mph 1010.9mb 40f 40f
3:48 3 6 mph 1011mb 40f 40f
3:42 3 5 mph 1011.1mb 40f 40f
3:36 3 5 mph 1011.2mb 40f 40f
3:30 3 5 mph 1011.2mb 40f 40f
3:24 3 5 mph 1011.4mb 40f 40f
3:18 3 5 mph 1011.4mb 40f 40f
3:12 2 3 mph 1011.6mb 40f 40f
3:06 1 3 mph 1011.7mb 40f 40f
3:00 2 3 mph 1011.7mb 40f 40f
2:54 2 3 mph 1011.9mb 40f 40f
2:48 3 5 mph 1011.9mb 40f -
2:42 2 5 mph 1011.9mb 40f 40f
2:36 2 5 mph 1012mb 40f 40f
2:30 3 6 mph 1012.1mb 40f 40f
2:24 3 6 mph 1012mb 40f 40f
2:18 6
mph
1012mb 40f 40f
2:12 5 6 mph 1012.1mb 40f 40f
2:06 3 5 mph 1012.1mb 40f 40f
2:00 3 5 mph 1012.2mb 40f 40f
1:54 3 5 mph 1012.2mb 40f 40f
1:48 3 5 mph 1012.2mb 40f 40f
1:42 3 5 mph 1012.1mb 40f 40f
1:36 3 5 mph 1012.1mb 40f 40f
1:30 5 6 mph 1012mb 40f 40f
1:24 5 6 mph 1012mb 40f 40f
1:18 3 5 mph 1012.1mb 40f 40f
1:12 3
mph
1012.1mb 40f 40f
1:00 2
mph
- - -
12:54 1 2 mph 1012.1mb 40f 40f
12:48 2 3 mph 1012.2mb 40f 40f
12:42 3
mph
1012.2mb 40f -
12:36 2 3 mph 1012.3mb 40f -
12:30 3 5 mph 1012.4mb 40f 40f
12:24 3
mph
1012.4mb 40f 40f
12:18 3 5 mph 1012.3mb 40f 40f
12:12 3 5 mph 1012.3mb 40f 40f
12:06 5
mph
1012.3mb 40f 40f
12:00 2 5 mph 1012.3mb 40f 40f
Fr 01/20 11:54 5
mph
1012.3mb 40f 40f
11:48 3
mph
1012.4mb 40f -
11:42 3 5 mph 1012.5mb 40f 40f
11:36 3 5 mph 1012.5mb 40f 40f
11:30 2 3 mph 1012.6mb 40f 40f
11:24 3 5 mph 1012.7mb 40f 40f
11:18 5 6 mph 1012.7mb 40f 40f
11:12 5 6 mph 1012.8mb 40f 40f
11:06 5 6 mph 1012.8mb 40f 40f
11:00 3 5 mph 1012.9mb 40f 40f
10:54 3 7 mph 1013mb 40f 40f
10:48 3 6 mph 1013.1mb 40f 40f
10:42 3 5 mph 1013.1mb 40f 40f
10:36 3 5 mph 1013.1mb 40f 40f
10:30 5
mph
1013.1mb 40f 40f
10:24 3 6 mph 1013.1mb 40f 40f
10:18 3 5 mph 1013.1mb 40f 40f
10:12 3 5 mph 1013.1mb 40f 40f
10:06 3 5 mph 1013.1mb 40f 40f
10:00 2 5 mph 1013.1mb - -
9:54 3 6 mph 1013.2mb 40f 40f
9:48 6 7 mph 1013.2mb - -
9:42 6 7 mph 1013.1mb 40f 40f
9:36 3 7 mph 1013.1mb 40f 40f
9:30 5 6 mph 1013.1mb 40f 40f
9:24 5 7 mph 1013.2mb 40f 40f
9:18 6 8 mph 1013.2mb 40f 40f
9:12 6 7 mph 1013.3mb 39f 40f
9:06 5 7 mph 1013.3mb 39f 40f
9:00 3 7 mph 1013.3mb 39f 40f
8:54 5 6 mph 1013.2mb 39f 40f
8:48 5 7 mph 1013.3mb - -
8:42 5 7 mph 1013.2mb 39f 40f
8:36 6 8 mph 1013.2mb 39f 40f
8:30 6 8 mph 1013.3mb 39f 40f
8:24 6 8 mph 1013.3mb 39f 40f
8:18 5 6 mph 1013.3mb 39f 40f
8:12 5 7 mph 1013.3mb 39f 40f
8:06 6 8 mph 1013.3mb 39f 40f
8:00 6 8 mph 1013.3mb 39f 40f
7:54 6 7 mph 1013.4mb 39f 40f
7:48 3 5 mph - 39f 40f
7:42 3 5 mph - 39f 40f
7:36 3 5 mph - 39f 40f
7:30 2 3 mph 1013.6mb 39f 40f
7:24  -  2 mph 1013.6mb 39f 40f
7:18 2 3 mph - - -
7:12 2 3 mph 1013.6mb 39f 40f
7:06 3 6 mph 1013.6mb 39f 40f
7:00 5 6 mph 1013.6mb 39f 40f
6:54 5 6 mph 1013.7mb 39f 40f
6:48 3 5 mph 1013.7mb - -
6:42 2 5 mph 1013.7mb 39f 40f
6:36 5 7 mph 1013.8mb 39f 40f
6:30 7 8 mph 1013.8mb 39f 40f
6:24 6 7 mph 1013.8mb 39f 40f
6:18 6 7 mph 1013.8mb 39f 40f
6:12 6 8 mph 1013.8mb 39f 40f
6:06 7 9 mph 1013.8mb 39f 40f
6:00 7 9 mph 1013.7mb 39f 40f
5:54 8 9 mph 1013.8mb 39f 40f
5:48 6 9 mph 1013.8mb - -
5:42 8 9 mph 1013.7mb 39f 40f
5:36 7 9 mph 1013.7mb 39f 40f
5:30 6 8 mph 1013.7mb 39f 40f
5:24 5 7 mph 1013.6mb 39f 40f
5:18 5 7 mph 1013.6mb 39f 40f
5:12 6 7 mph 1013.5mb 39f 40f
5:06 6 8 mph 1013.3mb 39f 40f
5:00 6 7 mph 1013.3mb 39f 40f
4:54 3 5 mph 1013.2mb 39f 41f
4:48 3 6 mph 1013.2mb 39f 41f
4:42 5 6 mph 1013.1mb 39f 41f
4:36 6
mph
1013.1mb 39f 41f
4:30 6 7 mph 1013.1mb 39f 41f
4:24 6 7 mph 1013.1mb 39f 41f
4:18 5 6 mph 1013.1mb 39f 41f
4:12 5 6 mph 1013.1mb 39f 41f
4:06 5 6 mph 1013.1mb 40f 41f
4:00 3 5 mph 1013.2mb 40f 41f
3:54 3 5 mph 1013.2mb 40f 41f
3:48 3 6 mph 1013.2mb 40f 41f
3:42 3 6 mph 1013.3mb 40f 41f
3:36 6 7 mph 1013.3mb 40f 41f
3:30 6
mph
1013.4mb 40f 41f
3:24 6 7 mph 1013.5mb 40f 41f
3:18 6 8 mph 1013.5mb 40f -
3:12 7
mph
1013.5mb 40f 41f
3:06 7 8 mph 1013.6mb 40f 41f
3:00 9 10 mph 1013.6mb 40f 41f
2:54 9 11 mph 1013.6mb 40f 41f
2:48 10 14 mph 1013.6mb 40f 41f
2:42 11 15 mph 1013.7mb 40f 41f
2:36 7 13 mph 1013.7mb 40f 41f
2:30 10 13 mph 1013.7mb 40f 41f
2:24 7 9 mph 1013.8mb 40f 41f
2:18 7 9 mph 1013.8mb 40f 41f
2:12 6 8 mph 1014mb 40f 41f
2:06 7 8 mph 1014.1mb 40f 41f
2:00 7 8 mph 1014.1mb 40f 41f
1:54 6 7 mph 1014.1mb 40f 41f
1:48 6 9 mph 1014.1mb 40f 41f
1:42 6 10 mph 1014.2mb 40f 41f
1:36 8 10 mph 1014.3mb 40f 41f
1:30 8 10 mph 1014.3mb 40f 41f
1:24 8 10 mph 1014.3mb 40f 41f
1:18 7 9 mph 1014.3mb 40f 41f
1:12 8 11 mph 1014.3mb 40f 41f
1:06 5 7 mph 1014.4mb 40f 41f
1:00 6 7 mph 1014.4mb 40f 41f
12:54 6 7 mph 1014.4mb 40f 41f
12:48 3 6 mph 1014.4mb 40f 41f
12:42 3 5 mph 1014.4mb 40f 41f
12:36 3 5 mph 1014.4mb 40f 41f
12:30 3 5 mph 1014.4mb 40f 40f
12:24 3 5 mph 1014.4mb 40f 40f
12:18 2 3 mph 1014.6mb 40f 40f
12:12  -  1 mph 1014.7mb 40f 40f
12:06  -  1 mph 1014.7mb 40f 40f
12:00 1
mph
1014.9mb 40f 40f
11:54 1
mph
1014.9mb 40f 40f
11:48  -  1 mph 1015.1mb 40f 39f
11:42  -  1 mph 1015.1mb 40f 39f
11:36  -  2 mph 1015.1mb 40f 39f
11:30 2
mph
1015.3mb 40f 39f
11:24  -  1 mph 1015.4mb 40f 39f
11:18  -  1 mph 1015.6mb 39f 39f
11:12  -  1 mph 1015.8mb 39f 39f
11:06  -  1 mph 1015.9mb 39f 39f
11:00  -  1 mph 1015.9mb 39f 38f
10:54 1 2 mph 1015.9mb 39f 38f
10:48 1 2 mph 1016mb 39f 38f
10:42 1 2 mph 1016mb 39f 38f
10:36 1
mph
1016.1mb 39f 38f
10:30 1
mph
1016.2mb 39f 38f
10:24  -  1 mph 1016.3mb 39f 38f
10:18 1
mph
1016.3mb 39f 38f
10:12 1 2 mph 1016.3mb 39f 38f
10:06 1 2 mph 1016.3mb 39f 37f
10:00  -  3 mph 1016.4mb 39f 37f
9:54 1 3 mph 1016.5mb 39f 37f
9:48 2 3 mph 1016.5mb 39f 37f
9:42 2 6 mph 1016.4mb 39f 37f
9:36 2 5 mph 1016.4mb 39f 37f
9:30 1 3 mph 1016.3mb 39f 37f
9:24 1 3 mph 1016.5mb 39f 37f
9:18 1 3 mph 1016.4mb 39f -
9:12 2 3 mph 1016.4mb 39f 37f
9:06 2 6 mph 1016.5mb 39f 36f
9:00 3 6 mph 1016.4mb 39f 37f
8:54 3 5 mph 1016.4mb 39f 37f
8:48 5 6 mph 1016.3mb 39f 37f
8:42 5 6 mph 1016.4mb 39f 37f
8:36 3 5 mph 1016.3mb 39f 37f
8:30 3 5 mph 1016.1mb 39f 36f
8:24 3
mph
1016mb 39f 36f
8:18 3 5 mph 1015.9mb 39f 36f
8:12 2 3 mph 1015.9mb 39f 36f
8:06 1 2 mph 1015.9mb 39f 36f
8:00  -  2 mph 1015.8mb 39f 35f
7:54 3 5 mph 1015.8mb 39f 35f
7:48 3 6 mph 1015.7mb 39f 35f
7:42 1 8 mph 1015.7mb 39f 35f
7:36 7 8 mph 1015.6mb 39f 35f
7:30 5 6 mph 1015.6mb 39f 34f
7:24 2 3 mph 1015.6mb 39f 34f
7:18 3 5 mph 1015.6mb 39f 34f
7:12 3 5 mph 1015.8mb 39f 34f
7:06 2 3 mph 1015.9mb 39f 34f
7:00 1 5 mph 1015.8mb 39f 34f
6:54 3 5 mph 1015.7mb 39f 34f
6:48  -  5 mph 1015.6mb 39f 35f
6:42  -  2 mph 1015.5mb 39f 34f
6:36  -  1 mph 1015.5mb 39f 34f
6:30  -  1 mph 1015.5mb 39f 34f
6:24  -  2 mph 1015.5mb 39f 35f
6:18 1 2 mph 1015.6mb - -
6:12 3
mph
1015.5mb 39f 35f
6:06 2 5 mph 1015.5mb 39f 35f
6:00 3 5 mph 1015.5mb 39f 35f
5:54 5 7 mph 1015.4mb 39f 35f
5:48 2 5 mph 1015.5mb 39f 35f
5:42 3 6 mph 1015.5mb 39f 35f
5:36 3 7 mph 1015.5mb 39f 35f
5:30 3 6 mph 1015.6mb 39f 35f
5:24 5 7 mph 1015.6mb 39f 35f
5:18 5 6 mph 1015.6mb 39f 35f
5:12 3 6 mph 1015.7mb 39f 35f
5:06 3 7 mph 1015.8mb 39f 35f
5:00 5 6 mph 1015.7mb 39f 35f
4:54 5 6 mph 1015.8mb 39f 35f
4:48 2 3 mph 1015.8mb - -
4:42 3 6 mph 1015.6mb 39f 35f
4:36 5 6 mph 1015.6mb 39f 36f
4:30 3 5 mph 1015.6mb 39f 35f
4:24 2 3 mph 1015.6mb 39f 35f
4:18 3 6 mph 1015.6mb 39f 36f
4:12 5 8 mph 1015.8mb 39f 37f
4:06 3 8 mph 1015.8mb 39f 37f
4:00 6 7 mph 1015.7mb 39f 37f
3:54 5 7 mph 1015.8mb 39f 37f
3:48 5 7 mph 1015.8mb 39f 37f
3:42 6 7 mph 1015.8mb 39f 37f
3:36 5 6 mph 1015.7mb 39f 37f
3:30 5 6 mph 1015.8mb 40f 37f
3:24 3 8 mph 1015.8mb 40f 37f
3:18 7 9 mph 1015.8mb 40f 37f
3:12 6 8 mph 1015.7mb 40f 37f
3:06 5 7 mph 1015.7mb 40f 37f
3:00 5 7 mph 1015.8mb 40f 37f
2:54 5 6 mph 1015.7mb 40f 37f
2:48 5 7 mph 1015.7mb - -
2:42 6 7 mph 1015.7mb 40f 37f
2:36 3 9 mph 1015.7mb 40f 38f
2:30 5 7 mph 1015.5mb 40f 38f
2:24 6 7 mph 1015.5mb 40f 38f
2:18 6 8 mph 1015.4mb 40f 38f
2:12 3 7 mph 1015.4mb 40f 38f
2:06 5 7 mph 1015.4mb 40f 38f
2:00 3 7 mph 1015.4mb 40f 38f
1:54 3 9 mph 1015.3mb 40f 39f
1:48 8 10 mph 1015.1mb 40f 39f
1:42 9 13 mph 1014.9mb 40f 39f
1:36 7 9 mph 1015mb 40f 39f
1:30 7 9 mph 1015mb 40f 39f
1:24 7 11 mph 1014.9mb 40f 40f
1:18 8 10 mph 1014.8mb 40f -
1:12 7 9 mph 1014.9mb 40f 40f
1:06 6 7 mph 1015.1mb 40f 40f
1:00 6 9 mph 1015.1mb 40f -
12:54 7 9 mph 1015.1mb 40f 40f
12:48 6 10 mph 1015.1mb 40f 40f
12:42 6 9 mph 1015mb 40f -
12:36 6 9 mph 1014.9mb 40f -
12:30 8 11 mph 1014.9mb 40f 41f
12:24 6 10 mph 1014.8mb 40f 41f
12:18 7 9 mph 1014.8mb 40f 41f
12:12 9 11 mph 1014.8mb 40f 41f
12:06 8 10 mph 1014.8mb 40f 41f
12:00 7 9 mph 1014.9mb 40f 41f
Do 01/19 11:54 9 13 mph 1014.8mb 40f 41f
11:48 9 13 mph 1015mb 40f 41f
11:42 9 13 mph 1015mb 40f 41f
11:36 9 14 mph 1015mb 40f 41f
11:30 8 13 mph 1015mb 40f 41f
11:24 9 11 mph 1015.1mb 40f 42f
11:18 11 16 mph 1015.1mb 40f 42f
11:12 8 13 mph 1015mb 40f 42f
11:06 10 14 mph 1015.2mb 40f 42f
11:00 7 10 mph 1015.3mb 40f 42f
10:54 8 11 mph 1015.5mb 40f 42f
10:48 11 14 mph 1015.7mb 39f 42f
10:42 9 14 mph 1015.7mb 39f 43f
10:36 9 15 mph 1015.6mb 39f 42f
10:30 10 14 mph 1015.7mb 39f 42f
10:24 8 14 mph 1015.9mb 39f 43f
10:18 7 14 mph 1015.9mb 39f 43f
10:12 9 13 mph 1016.1mb 39f 43f
10:06 9 11 mph 1016.1mb 39f 43f
10:00 7 9 mph 1016.1mb 39f 43f
9:54 7 9 mph 1016.1mb 39f 43f
9:48 7 9 mph 1016mb 39f 43f
9:42 7 10 mph 1015.9mb 39f 43f
9:36 8 11 mph 1016.1mb 39f 43f
9:30 8 11 mph 1016.1mb 39f 43f
9:24 9 13 mph 1016mb 39f 43f
9:18 8 11 mph 1015.9mb 39f 43f
9:12 9 13 mph 1016mb 39f 43f
9:06 8 11 mph 1016mb 39f 44f
9:00 8 14 mph 1016mb 39f 43f
8:54 9 13 mph 1015.9mb 39f 44f
8:48 9 13 mph 1015.9mb 39f 44f
8:42 6 13 mph 1015.8mb 39f 44f
8:36 8 11 mph 1015.8mb 39f 44f
8:30 9 11 mph 1015.8mb 39f 44f
8:24 5 9 mph 1015.7mb 39f 44f
8:18 6 9 mph - - -
8:12 6 8 mph 1015.6mb 39f 44f
8:06 6 8 mph 1015.5mb 39f 44f
8:00 3 8 mph 1015.5mb 39f 44f
7:54 6 9 mph 1015.5mb 39f 44f
7:48 7 11 mph 1015.5mb 39f 44f
7:42 9 13 mph 1015.3mb 39f 44f
7:36 7 9 mph 1015.3mb 39f 44f
7:30 8 10 mph 1015.2mb 39f 44f
7:24 6 10 mph 1015.1mb 39f 44f
7:18 8 10 mph 1014.9mb 39f 44f
7:12 8 10 mph 1014.9mb 39f 44f
7:06 10 13 mph 1014.8mb 39f 44f
7:00 7 9 mph 1014.9mb 39f 44f
6:54 8 11 mph 1014.9mb 39f 44f
6:48 7 11 mph - - -
6:42 7 10 mph 1015mb 39f 44f
6:36 6 10 mph 1015mb 39f 44f
6:30 7 9 mph 1015mb 39f 44f
6:24 7 10 mph 1014.9mb 39f 44f
6:18 6 8 mph 1014.7mb 39f 44f
6:12 6 8 mph 1014.4mb 39f 44f
6:06 3 8 mph 1014.4mb 39f 44f
6:00 6 8 mph 1014.3mb 39f 44f
5:54 7 9 mph 1014.1mb 39f 44f
5:48 7 8 mph 1014mb 39f 44f
5:42 6 9 mph 1013.8mb 39f 44f
5:36 6 8 mph 1013.8mb 39f 44f
5:30 6 9 mph 1013.7mb 39f 44f
5:24 3 7 mph 1013.6mb 39f 44f
5:18 6 8 mph 1013.6mb 39f 44f
5:12 6 8 mph 1013.5mb 39f 44f
5:06 8 9 mph 1013.5mb 39f 44f
5:00 8 9 mph 1013.4mb 39f 44f
4:54 6 8 mph 1013.4mb 39f 44f
4:48 7 9 mph 1013.4mb 39f 44f
4:42 8 10 mph 1013.4mb 39f 44f
4:36 7 9 mph 1013.3mb 39f 44f
4:30 7 9 mph 1013.3mb 39f 44f
4:24 6 8 mph 1013.4mb 39f 44f
4:18 6 9 mph 1013.2mb 39f 44f
4:12 7 11 mph 1013.3mb 39f 44f
4:06 7 10 mph 1013.2mb 39f 44f
4:00 9 13 mph 1013.2mb 39f 44f
3:54 8 11 mph 1013.2mb 39f 44f
3:48 10 13 mph 1013.2mb 39f 44f
3:42 10 13 mph 1013.2mb 39f 44f
3:36 9 11 mph 1013.3mb 39f 44f
3:30 9 14 mph 1013.2mb 39f 44f
3:24 11 15 mph 1013.2mb 39f 44f
3:18 11 15 mph 1013.3mb 39f 45f
3:12 11 16 mph 1013.2mb 39f 45f
3:06 13 15 mph 1013.1mb 39f 45f
3:00 11 15 mph 1013mb 39f 45f
2:54 8 11 mph 1013mb 39f 45f
2:48 7 10 mph 1012.9mb 39f 46f
2:42 8 11 mph 1012.9mb 39f 46f
2:36 6 10 mph 1012.8mb 39f 46f
2:30 9 11 mph 1012.8mb 40f 46f
2:24 7 10 mph 1012.8mb 40f 46f
2:18 6 8 mph 1012.8mb 40f 46f
2:12 5 9 mph 1012.8mb 40f 46f
2:06 8 11 mph 1012.8mb 40f 45f
2:00 10 14 mph 1012.8mb 40f 45f
1:54 6 13 mph 1012.8mb 40f 46f
1:48 7 11 mph 1012.8mb 40f 46f
1:42 8 11 mph 1012.8mb 40f 46f
1:36 8 10 mph 1012.9mb 40f 46f
1:30 7 11 mph 1012.9mb 40f 45f
1:24 10 13 mph 1013mb 40f 45f
1:18 8 13 mph 1013.1mb 40f 45f
1:12 9 14 mph 1013.1mb 40f 45f
1:06 9 14 mph 1013.1mb 40f 45f
1:00 6 11 mph 1013.1mb 40f 45f
12:54 8 16 mph 1013.1mb 40f 45f
12:48 8 11 mph 1013.1mb 40f 45f
12:42 10 13 mph 1013.1mb 40f 45f
12:36 9 13 mph 1013.1mb 40f 45f
12:30 11 15 mph 1013.2mb 40f 45f
12:24 10 16 mph 1013.3mb 40f 45f
12:18 8 11 mph 1013.3mb 40f 45f
12:12 8 14 mph 1013.4mb 40f 45f
12:06 9 13 mph 1013.4mb 40f 45f
12:00 8 11 mph 1013.6mb 40f 45f
11:54 10 15 mph 1013.8mb 40f 45f
11:48 13 18 mph 1013.7mb 40f 45f
11:42 9 14 mph 1013.9mb 40f 45f
11:36 7 13 mph 1014mb 40f 45f
11:30 9 14 mph 1014.1mb 40f 45f
11:24 9 13 mph 1014.2mb 40f 44f
11:18 9 13 mph 1014.3mb 40f 44f
11:12 7 9 mph 1014.5mb 40f 44f
11:06 6 15 mph 1014.5mb 40f 44f
11:00 11 15 mph 1014.7mb 40f 43f
10:54 8 13 mph 1014.8mb 40f 44f